Time,TemperatureF,DewpointF,PressureIn,WindDirection,WindDirectionDegrees,WindSpeedMPH,WindSpeedGustMPH,Humidity,HourlyPrecipIn,Conditions,Clouds,dailyrainin,SolarRadiationWatts/m^2,SoftwareType,DateUTC
2013-10-09 00:02:00,52.5,47.5,29.84,SW,236,0.0,3.0,83,0.00,,,0.00,0.0,meteohub,2013-10-09 07:02:00,
2013-10-09 00:07:00,52.5,47.1,29.84,SW,236,0.0,3.0,82,0.00,,,0.00,0.0,meteohub,2013-10-09 07:07:00,
2013-10-09 00:12:00,52.3,46.9,29.83,SW,236,0.0,3.0,82,0.00,,,0.00,0.0,meteohub,2013-10-09 07:12:00,
2013-10-09 00:17:00,52.3,46.9,29.84,SW,236,0.0,2.0,82,0.00,,,0.00,0.0,meteohub,2013-10-09 07:17:00,
2013-10-09 00:22:00,52.3,46.9,29.84,SW,223,0.0,3.0,82,0.00,,,0.00,0.0,meteohub,2013-10-09 07:22:00,
2013-10-09 00:27:00,52.2,46.8,29.84,West,266,0.0,3.0,82,0.00,,,0.00,0.0,meteohub,2013-10-09 07:27:00,
2013-10-09 00:32:00,52.2,46.8,29.84,West,265,0.0,3.0,82,0.00,,,0.00,0.0,meteohub,2013-10-09 07:32:00,
2013-10-09 00:37:00,52.2,46.8,29.83,West,267,0.0,2.0,82,0.00,,,0.00,0.0,meteohub,2013-10-09 07:37:00,
2013-10-09 00:42:00,52.2,46.6,29.83,SW,225,1.0,6.0,81,0.00,,,0.00,0.0,meteohub,2013-10-09 07:42:00,
2013-10-09 00:47:00,52.0,46.4,29.83,WSW,239,0.0,6.0,81,0.00,,,0.00,0.0,meteohub,2013-10-09 07:47:00,
2013-10-09 00:52:00,52.0,46.4,29.83,SW,233,3.0,4.0,81,0.00,,,0.00,0.0,meteohub,2013-10-09 07:52:00,
2013-10-09 00:57:00,52.0,46.4,29.83,SW,230,1.0,4.0,81,0.00,,,0.00,0.0,meteohub,2013-10-09 07:57:00,
2013-10-09 01:02:00,52.0,46.4,29.83,West,262,2.0,5.0,81,0.00,,,0.00,0.0,meteohub,2013-10-09 08:02:00,
2013-10-09 01:07:00,52.0,46.6,29.83,WSW,253,0.0,5.0,82,0.00,,,0.00,0.0,meteohub,2013-10-09 08:07:00,
2013-10-09 01:12:00,52.0,46.9,29.83,WSW,238,2.0,5.0,83,0.00,,,0.00,0.0,meteohub,2013-10-09 08:12:00,
2013-10-09 01:17:00,52.0,46.9,29.82,WSW,253,1.0,5.0,83,0.00,,,0.00,0.0,meteohub,2013-10-09 08:17:00,
2013-10-09 01:22:00,51.8,47.1,29.82,West,275,1.0,8.0,84,0.00,,,0.00,0.0,meteohub,2013-10-09 08:22:00,
2013-10-09 01:27:00,51.6,46.9,29.82,WSW,255,2.0,8.0,84,0.00,,,0.00,0.0,meteohub,2013-10-09 08:27:00,
2013-10-09 01:32:00,51.6,46.9,29.82,SW,229,7.0,8.0,84,0.00,,,0.00,0.0,meteohub,2013-10-09 08:32:00,
2013-10-09 01:37:00,51.4,46.8,29.82,NW,325,4.0,8.0,84,0.00,,,0.00,0.0,meteohub,2013-10-09 08:37:00,
2013-10-09 01:42:00,51.4,46.8,29.81,SW,236,3.0,7.0,84,0.00,,,0.00,0.0,meteohub,2013-10-09 08:42:00,
2013-10-09 01:47:00,51.4,46.8,29.81,SW,235,4.0,7.0,84,0.00,,,0.00,0.0,meteohub,2013-10-09 08:47:00,
2013-10-09 01:52:00,51.4,47.1,29.81,WSW,252,0.0,6.0,85,0.00,,,0.00,0.0,meteohub,2013-10-09 08:52:00,
2013-10-09 01:57:00,51.4,47.1,29.82,West,277,0.0,8.0,85,0.00,,,0.00,0.0,meteohub,2013-10-09 08:57:00,
2013-10-09 02:02:00,51.4,47.1,29.82,WSW,237,4.0,8.0,85,0.00,,,0.00,0.0,meteohub,2013-10-09 09:02:00,
2013-10-09 02:07:00,51.3,46.9,29.81,West,267,1.0,8.0,85,0.00,,,0.00,0.0,meteohub,2013-10-09 09:07:00,
2013-10-09 02:12:00,51.3,46.9,29.81,WSW,238,1.0,7.0,85,0.00,,,0.00,0.0,meteohub,2013-10-09 09:12:00,
2013-10-09 02:17:00,51.3,46.9,29.81,NW,311,2.0,6.0,85,0.00,,,0.00,0.0,meteohub,2013-10-09 09:17:00,
2013-10-09 02:22:00,51.3,46.9,29.81,West,269,1.0,6.0,85,0.00,,,0.00,0.0,meteohub,2013-10-09 09:22:00,
2013-10-09 02:27:00,51.3,46.9,29.81,NW,307,3.0,6.0,85,0.00,,,0.00,0.0,meteohub,2013-10-09 09:27:00,
2013-10-09 02:32:00,51.3,46.9,29.81,West,265,0.0,6.0,85,0.00,,,0.00,0.0,meteohub,2013-10-09 09:32:00,
2013-10-09 02:37:00,51.3,46.9,29.81,WSW,242,0.0,6.0,85,0.00,,,0.00,0.0,meteohub,2013-10-09 09:37:00,
2013-10-09 02:42:00,51.1,46.8,29.80,SW,223,1.0,6.0,85,0.00,,,0.00,0.0,meteohub,2013-10-09 09:42:00,
2013-10-09 02:47:00,51.1,46.8,29.80,West,280,3.0,7.0,85,0.00,,,0.00,0.0,meteohub,2013-10-09 09:47:00,
2013-10-09 02:52:00,50.9,46.6,29.80,NW,315,1.0,7.0,85,0.00,,,0.00,0.0,meteohub,2013-10-09 09:52:00,
2013-10-09 02:57:00,50.9,46.6,29.80,WNW,286,2.0,5.0,85,0.00,,,0.00,0.0,meteohub,2013-10-09 09:57:00,
2013-10-09 03:02:00,50.7,46.4,29.79,SW,232,0.0,7.0,85,0.00,,,0.00,0.0,meteohub,2013-10-09 10:02:00,
2013-10-09 03:07:00,50.7,46.4,29.79,SW,227,1.0,9.0,85,0.00,,,0.00,0.0,meteohub,2013-10-09 10:07:00,
2013-10-09 03:12:00,50.7,46.4,29.79,SSW,211,1.0,9.0,85,0.00,,,0.00,0.0,meteohub,2013-10-09 10:12:00,
2013-10-09 03:17:00,50.7,46.4,29.79,NW,309,0.0,9.0,85,0.00,,,0.00,0.0,meteohub,2013-10-09 10:17:00,
2013-10-09 03:22:00,50.7,46.4,29.79,WSW,238,2.0,6.0,85,0.00,,,0.00,0.0,meteohub,2013-10-09 10:22:00,
2013-10-09 03:27:00,50.5,46.2,29.78,West,273,3.0,6.0,85,0.00,,,0.00,0.0,meteohub,2013-10-09 10:27:00,
2013-10-09 03:32:00,50.5,46.6,29.78,SSW,210,4.0,10.0,86,0.00,,,0.00,0.0,meteohub,2013-10-09 10:32:00,
2013-10-09 03:37:00,50.5,46.6,29.78,SW,229,0.0,10.0,86,0.00,,,0.00,0.0,meteohub,2013-10-09 10:37:00,
2013-10-09 03:42:00,50.5,46.6,29.78,WSW,252,2.0,10.0,86,0.00,,,0.00,0.0,meteohub,2013-10-09 10:42:00,
2013-10-09 03:47:00,50.5,46.6,29.78,WNW,292,0.0,7.0,86,0.00,,,0.00,0.0,meteohub,2013-10-09 10:47:00,
2013-10-09 03:52:00,50.5,46.6,29.78,WSW,239,1.0,7.0,86,0.00,,,0.00,0.0,meteohub,2013-10-09 10:52:00,
2013-10-09 03:57:00,50.5,46.6,29.78,SSW,209,0.0,7.0,86,0.00,,,0.00,0.0,meteohub,2013-10-09 10:57:00,
2013-10-09 04:02:00,50.5,46.2,29.78,SSW,209,0.0,6.0,85,0.00,,,0.00,0.0,meteohub,2013-10-09 11:02:00,
2013-10-09 04:07:00,50.4,46.4,29.78,NNW,327,0.0,7.0,86,0.00,,,0.00,0.0,meteohub,2013-10-09 11:07:00,
2013-10-09 04:12:00,50.4,46.4,29.78,North,355,0.0,7.0,86,0.00,,,0.00,0.0,meteohub,2013-10-09 11:12:00,
2013-10-09 04:17:00,50.4,46.4,29.78,NNW,331,0.0,7.0,86,0.00,,,0.00,0.0,meteohub,2013-10-09 11:17:00,
2013-10-09 04:22:00,50.4,46.4,29.78,NNW,331,0.0,2.0,86,0.00,,,0.00,0.0,meteohub,2013-10-09 11:22:00,
2013-10-09 04:27:00,50.2,46.2,29.77,WNW,300,0.0,3.0,86,0.00,,,0.00,0.0,meteohub,2013-10-09 11:27:00,
2013-10-09 04:32:00,50.2,46.2,29.76,WNW,300,4.0,4.0,86,0.00,,,0.00,0.0,meteohub,2013-10-09 11:32:00,
2013-10-09 04:37:00,50.2,46.2,29.76,WNW,299,0.0,6.0,86,0.00,,,0.00,0.0,meteohub,2013-10-09 11:37:00,
2013-10-09 04:42:00,50.2,46.2,29.77,NNW,332,0.0,6.0,86,0.00,,,0.00,0.0,meteohub,2013-10-09 11:42:00,
2013-10-09 04:47:00,50.2,46.2,29.77,NNW,332,0.0,6.0,86,0.00,,,0.00,0.0,meteohub,2013-10-09 11:47:00,
2013-10-09 04:52:00,50.2,46.2,29.77,North,355,2.0,4.0,86,0.00,,,0.00,0.0,meteohub,2013-10-09 11:52:00,
2013-10-09 04:57:00,50.0,46.0,29.77,West,280,5.0,5.0,86,0.00,,,0.00,0.0,meteohub,2013-10-09 11:57:00,
2013-10-09 05:02:00,50.0,46.2,29.77,SW,220,1.0,7.0,87,0.00,,,0.00,0.0,meteohub,2013-10-09 12:02:00,
2013-10-09 05:03:00,50.0,46.0,29.77,SW,220,0.0,7.0,86,0.00,,,0.00,0.0,meteohub,2013-10-09 12:03:00,
2013-10-09 05:08:00,50.0,46.2,29.77,WSW,241,1.0,7.0,87,0.00,,,0.00,0.0,meteohub,2013-10-09 12:08:00,
2013-10-09 05:13:00,50.0,46.2,29.77,SW,234,0.0,7.0,87,0.00,,,0.00,0.0,meteohub,2013-10-09 12:13:00,
2013-10-09 05:18:00,50.0,46.2,29.77,NW,325,0.0,4.0,87,0.00,,,0.00,0.0,meteohub,2013-10-09 12:18:00,
2013-10-09 05:23:00,50.0,46.2,29.77,SSW,209,0.0,4.0,87,0.00,,,0.00,0.0,meteohub,2013-10-09 12:23:00,
2013-10-09 05:28:00,50.2,46.4,29.77,West,259,0.0,4.0,87,0.00,,,0.00,0.0,meteohub,2013-10-09 12:28:00,
2013-10-09 05:33:00,50.2,46.4,29.76,WSW,244,2.0,3.0,87,0.00,,,0.00,0.0,meteohub,2013-10-09 12:33:00,
2013-10-09 05:38:00,50.4,46.6,29.76,WNW,296,0.0,6.0,87,0.00,,,0.00,0.0,meteohub,2013-10-09 12:38:00,
2013-10-09 05:43:00,50.4,46.6,29.76,SE,127,0.0,6.0,87,0.00,,,0.00,0.0,meteohub,2013-10-09 12:43:00,
2013-10-09 05:48:00,50.5,46.8,29.76,WSW,243,1.0,6.0,87,0.00,,,0.00,0.0,meteohub,2013-10-09 12:48:00,
2013-10-09 05:53:00,50.5,46.8,29.76,WSW,246,0.0,5.0,87,0.00,,,0.00,0.0,meteohub,2013-10-09 12:53:00,
2013-10-09 05:58:00,50.7,46.8,29.76,WSW,253,3.0,5.0,86,0.00,,,0.00,0.0,meteohub,2013-10-09 12:58:00,
2013-10-09 06:03:00,50.7,46.8,29.76,SSW,194,1.0,7.0,86,0.00,,,0.00,0.0,meteohub,2013-10-09 13:03:00,
2013-10-09 06:08:00,50.5,46.6,29.76,West,276,2.0,7.0,86,0.00,,,0.00,0.0,meteohub,2013-10-09 13:08:00,
2013-10-09 06:14:00,50.5,46.6,29.76,WSW,257,2.0,7.0,86,0.00,,,0.00,0.0,meteohub,2013-10-09 13:14:00,
2013-10-09 06:19:00,50.5,46.6,29.76,WSW,255,0.0,6.0,86,0.00,,,0.00,0.0,meteohub,2013-10-09 13:19:00,
2013-10-09 06:24:00,50.4,46.4,29.76,WSW,247,1.0,6.0,86,0.00,,,0.00,0.0,meteohub,2013-10-09 13:24:00,
2013-10-09 06:29:00,50.2,46.2,29.76,West,265,0.0,6.0,86,0.00,,,0.00,0.0,meteohub,2013-10-09 13:29:00,
2013-10-09 06:34:00,50.2,46.4,29.76,NW,311,0.0,7.0,87,0.00,,,0.00,0.0,meteohub,2013-10-09 13:34:00,
2013-10-09 06:39:00,50.0,46.2,29.76,WNW,292,0.0,7.0,87,0.00,,,0.00,0.0,meteohub,2013-10-09 13:39:00,
2013-10-09 06:44:00,49.8,46.0,29.77,SW,215,0.0,6.0,87,0.00,,,0.00,0.0,meteohub,2013-10-09 13:44:00,
2013-10-09 06:49:00,49.8,46.0,29.76,SW,234,0.0,4.0,87,0.00,,,0.00,0.0,meteohub,2013-10-09 13:49:00,
2013-10-09 06:54:00,49.8,46.0,29.76,WSW,254,0.0,4.0,87,0.00,,,0.00,0.0,meteohub,2013-10-09 13:54:00,
2013-10-09 06:59:00,49.6,45.9,29.76,WSW,254,0.0,4.0,87,0.00,,,0.00,0.0,meteohub,2013-10-09 13:59:00,
2013-10-09 07:04:00,49.6,45.9,29.76,WSW,251,0.0,4.0,87,0.00,,,0.00,0.0,meteohub,2013-10-09 14:04:00,
2013-10-09 07:09:00,49.5,45.7,29.76,West,262,3.0,3.0,87,0.00,,,0.00,0.0,meteohub,2013-10-09 14:09:00,
2013-10-09 07:14:00,49.5,45.7,29.76,West,267,0.0,2.0,87,0.00,,,0.00,0.0,meteohub,2013-10-09 14:14:00,
2013-10-09 07:19:00,49.5,45.7,29.76,WSW,254,2.0,5.0,87,0.00,,,0.00,0.0,meteohub,2013-10-09 14:19:00,
2013-10-09 07:24:00,49.5,45.7,29.76,WSW,242,2.0,5.0,87,0.00,,,0.00,5.0,meteohub,2013-10-09 14:24:00,
2013-10-09 07:29:00,49.3,45.9,29.77,WSW,243,0.0,3.0,88,0.00,,,0.00,7.0,meteohub,2013-10-09 14:29:00,
2013-10-09 07:34:00,49.3,45.5,29.77,WSW,243,0.0,4.0,87,0.00,,,0.00,9.0,meteohub,2013-10-09 14:34:00,
2013-10-09 07:39:00,49.3,45.5,29.77,SSW,211,0.0,4.0,87,0.00,,,0.00,11.0,meteohub,2013-10-09 14:39:00,
2013-10-09 07:44:00,49.3,45.9,29.77,SW,227,0.0,3.0,88,0.00,,,0.00,12.0,meteohub,2013-10-09 14:44:00,
2013-10-09 07:49:00,49.3,45.9,29.77,SSW,213,0.0,3.0,88,0.00,,,0.00,14.0,meteohub,2013-10-09 14:49:00,
2013-10-09 07:54:00,49.3,45.9,29.77,WSW,257,2.0,3.0,88,0.00,,,0.00,16.0,meteohub,2013-10-09 14:54:00,
2013-10-09 07:59:00,49.3,45.9,29.77,SW,234,1.0,3.0,88,0.00,,,0.00,16.0,meteohub,2013-10-09 14:59:00,
2013-10-09 08:04:00,49.3,45.9,29.77,WSW,250,1.0,4.0,88,0.00,,,0.00,18.0,meteohub,2013-10-09 15:04:00,
2013-10-09 08:09:00,49.3,45.9,29.77,SSW,212,0.0,4.0,88,0.00,,,0.00,18.0,meteohub,2013-10-09 15:09:00,
2013-10-09 08:14:00,49.5,46.0,29.77,WSW,238,2.0,4.0,88,0.00,,,0.00,19.0,meteohub,2013-10-09 15:14:00,
2013-10-09 08:19:00,49.5,46.0,29.78,SW,232,0.0,4.0,88,0.00,,,0.00,19.0,meteohub,2013-10-09 15:19:00,
2013-10-09 08:25:00,49.5,46.0,29.77,WSW,245,1.0,4.0,88,0.00,,,0.00,21.0,meteohub,2013-10-09 15:25:00,
2013-10-09 08:30:00,49.6,46.2,29.77,SW,223,0.0,3.0,88,0.00,,,0.00,21.0,meteohub,2013-10-09 15:30:00,
2013-10-09 08:35:00,49.6,46.2,29.77,SW,224,0.0,3.0,88,0.00,,,0.00,23.0,meteohub,2013-10-09 15:35:00,
2013-10-09 08:40:00,49.6,46.2,29.78,SW,224,0.0,2.0,88,0.00,,,0.00,23.0,meteohub,2013-10-09 15:40:00,
2013-10-09 08:45:00,49.8,46.0,29.77,SW,236,1.0,2.0,87,0.00,,,0.00,25.0,meteohub,2013-10-09 15:45:00,
2013-10-09 08:50:00,50.2,46.4,29.78,SSW,201,1.0,4.0,87,0.00,,,0.00,26.0,meteohub,2013-10-09 15:50:00,
2013-10-09 08:55:00,50.4,46.4,29.78,WSW,245,3.0,4.0,86,0.00,,,0.00,26.0,meteohub,2013-10-09 15:55:00,
2013-10-09 09:00:00,50.5,46.6,29.78,WSW,254,0.0,4.0,86,0.00,,,0.00,26.0,meteohub,2013-10-09 16:00:00,
2013-10-09 09:05:00,50.9,46.6,29.78,WSW,238,1.0,4.0,85,0.00,,,0.00,28.0,meteohub,2013-10-09 16:05:00,
2013-10-09 09:10:00,51.1,46.8,29.78,SW,222,2.0,4.0,85,0.00,,,0.00,32.0,meteohub,2013-10-09 16:10:00,
2013-10-09 09:15:00,51.3,46.6,29.78,SW,227,0.0,4.0,84,0.00,,,0.00,30.0,meteohub,2013-10-09 16:15:00,
2013-10-09 09:20:00,51.6,46.6,29.78,SW,234,2.0,5.0,83,0.00,,,0.00,30.0,meteohub,2013-10-09 16:20:00,
2013-10-09 09:25:00,52.0,46.6,29.78,SW,217,1.0,5.0,82,0.00,,,0.00,32.0,meteohub,2013-10-09 16:25:00,
2013-10-09 09:30:00,52.3,46.9,29.78,WSW,254,2.0,5.0,82,0.00,,,0.00,32.0,meteohub,2013-10-09 16:30:00,
2013-10-09 09:35:00,52.5,46.9,29.78,SW,233,3.0,5.0,81,0.00,,,0.00,33.0,meteohub,2013-10-09 16:35:00,
2013-10-09 09:40:00,52.9,46.9,29.78,WSW,238,3.0,6.0,80,0.00,,,0.00,35.0,meteohub,2013-10-09 16:40:00,
2013-10-09 09:45:00,53.1,46.8,29.78,SSW,201,1.0,7.0,79,0.00,,,0.00,37.0,meteohub,2013-10-09 16:45:00,
2013-10-09 09:50:00,53.1,46.8,29.78,WSW,255,2.0,7.0,79,0.00,,,0.00,39.0,meteohub,2013-10-09 16:50:00,
2013-10-09 09:55:00,53.4,46.8,29.78,WSW,243,2.0,6.0,78,0.00,,,0.00,40.0,meteohub,2013-10-09 16:55:00,
2013-10-09 10:00:00,53.8,47.5,29.78,WSW,238,3.0,6.0,79,0.00,,,0.00,40.0,meteohub,2013-10-09 17:00:00,
2013-10-09 10:05:00,54.0,47.3,29.78,West,263,1.0,7.0,78,0.00,,,0.00,42.0,meteohub,2013-10-09 17:05:00,
2013-10-09 10:10:00,54.3,47.3,29.78,WSW,254,4.0,7.0,77,0.00,,,0.00,44.0,meteohub,2013-10-09 17:10:00,
2013-10-09 10:15:00,54.7,47.7,29.78,WSW,244,4.0,7.0,77,0.00,,,0.00,46.0,meteohub,2013-10-09 17:15:00,
2013-10-09 10:20:00,55.0,47.3,29.78,NW,315,2.0,6.0,75,0.00,,,0.00,47.0,meteohub,2013-10-09 17:20:00,
2013-10-09 10:26:00,55.4,47.3,29.78,SW,236,2.0,6.0,74,0.00,,,0.00,49.0,meteohub,2013-10-09 17:26:00,
2013-10-09 10:31:00,55.8,47.3,29.78,South,184,0.0,6.0,73,0.00,,,0.00,53.0,meteohub,2013-10-09 17:31:00,
2013-10-09 10:36:00,55.9,47.1,29.78,WSW,247,1.0,5.0,72,0.00,,,0.00,54.0,meteohub,2013-10-09 17:36:00,
2013-10-09 10:41:00,56.5,47.1,29.78,NW,323,1.0,5.0,71,0.00,,,0.00,60.0,meteohub,2013-10-09 17:41:00,
2013-10-09 10:46:00,57.0,47.3,29.78,WNW,298,3.0,5.0,70,0.00,,,0.00,74.0,meteohub,2013-10-09 17:46:00,
2013-10-09 10:51:00,57.6,47.1,29.78,WSW,241,1.0,7.0,68,0.00,,,0.00,104.0,meteohub,2013-10-09 17:51:00,
2013-10-09 10:56:00,58.1,47.1,29.78,WSW,250,4.0,7.0,67,0.00,,,0.00,513.0,meteohub,2013-10-09 17:56:00,
2013-10-09 11:01:00,58.6,47.3,29.78,WSW,244,1.0,7.0,66,0.00,,,0.00,541.0,meteohub,2013-10-09 18:01:00,
2013-10-09 11:06:00,59.4,47.7,29.78,West,260,2.0,7.0,65,0.00,,,0.00,550.0,meteohub,2013-10-09 18:06:00,
2013-10-09 11:11:00,59.7,46.8,29.78,WSW,245,4.0,7.0,62,0.00,,,0.00,563.0,meteohub,2013-10-09 18:11:00,
2013-10-09 11:16:00,60.1,45.7,29.78,WSW,249,4.0,7.0,59,0.00,,,0.00,568.0,meteohub,2013-10-09 18:16:00,
2013-10-09 11:21:00,60.3,45.5,29.78,SW,214,3.0,6.0,58,0.00,,,0.00,578.0,meteohub,2013-10-09 18:21:00,
2013-10-09 11:26:00,60.4,45.7,29.78,SW,228,0.0,6.0,58,0.00,,,0.00,585.0,meteohub,2013-10-09 18:26:00,
2013-10-09 11:31:00,61.0,45.7,29.78,WSW,246,0.0,6.0,57,0.00,,,0.00,592.0,meteohub,2013-10-09 18:31:00,
2013-10-09 11:36:00,61.3,45.5,29.78,East,82,0.0,5.0,56,0.00,,,0.00,596.0,meteohub,2013-10-09 18:36:00,
2013-10-09 11:41:00,61.7,45.0,29.78,WSW,248,4.0,5.0,54,0.00,,,0.00,610.0,meteohub,2013-10-09 18:41:00,
2013-10-09 11:46:00,62.1,45.7,29.78,SSE,159,1.0,5.0,55,0.00,,,0.00,613.0,meteohub,2013-10-09 18:46:00,
2013-10-09 11:51:00,62.4,46.0,29.78,WSW,253,1.0,5.0,55,0.00,,,0.00,619.0,meteohub,2013-10-09 18:51:00,
2013-10-09 11:56:00,63.1,46.2,29.79,NW,307,2.0,6.0,54,0.00,,,0.00,624.0,meteohub,2013-10-09 18:56:00,
2013-10-09 12:01:00,63.1,45.7,29.78,SSW,198,0.0,6.0,53,0.00,,,0.00,633.0,meteohub,2013-10-09 19:01:00,
2013-10-09 12:06:00,63.7,45.7,29.79,West,267,2.0,6.0,52,0.00,,,0.00,638.0,meteohub,2013-10-09 19:06:00,
2013-10-09 12:11:00,63.7,45.1,29.78,SW,221,1.0,6.0,51,0.00,,,0.00,645.0,meteohub,2013-10-09 19:11:00,
2013-10-09 12:16:00,63.9,45.3,29.79,WSW,250,0.0,6.0,51,0.00,,,0.00,649.0,meteohub,2013-10-09 19:16:00,
2013-10-09 12:21:00,64.6,45.5,29.78,WSW,256,2.0,6.0,50,0.00,,,0.00,652.0,meteohub,2013-10-09 19:21:00,
2013-10-09 12:26:00,65.1,44.4,29.78,SSE,155,0.0,4.0,47,0.00,,,0.00,657.0,meteohub,2013-10-09 19:26:00,
2013-10-09 12:31:00,65.5,44.8,29.78,West,269,4.0,4.0,47,0.00,,,0.00,657.0,meteohub,2013-10-09 19:31:00,
2013-10-09 12:37:00,65.8,44.4,29.78,South,189,3.0,5.0,46,0.00,,,0.00,664.0,meteohub,2013-10-09 19:37:00,
2013-10-09 12:42:00,65.7,44.2,29.78,SSW,209,0.0,6.0,46,0.00,,,0.00,664.0,meteohub,2013-10-09 19:42:00,
2013-10-09 12:47:00,66.0,44.6,29.78,WSW,248,1.0,6.0,46,0.00,,,0.00,670.0,meteohub,2013-10-09 19:47:00,
2013-10-09 12:52:00,66.2,44.2,29.78,WSW,251,6.0,6.0,45,0.00,,,0.00,670.0,meteohub,2013-10-09 19:52:00,
2013-10-09 12:57:00,66.0,44.1,29.78,SW,234,1.0,9.0,45,0.00,,,0.00,675.0,meteohub,2013-10-09 19:57:00,
2013-10-09 13:02:00,66.4,44.4,29.78,WSW,251,0.0,9.0,45,0.00,,,0.00,675.0,meteohub,2013-10-09 20:02:00,
2013-10-09 13:07:00,66.7,43.5,29.78,WSW,253,0.0,9.0,43,0.00,,,0.00,673.0,meteohub,2013-10-09 20:07:00,
2013-10-09 13:12:00,67.5,43.5,29.78,SW,227,8.0,8.0,42,0.00,,,0.00,677.0,meteohub,2013-10-09 20:12:00,
2013-10-09 13:17:00,67.3,42.8,29.78,SW,223,1.0,11.0,41,0.00,,,0.00,675.0,meteohub,2013-10-09 20:17:00,
2013-10-09 13:22:00,67.5,43.0,29.78,SSW,198,0.0,11.0,41,0.00,,,0.00,675.0,meteohub,2013-10-09 20:22:00,
2013-10-09 13:27:00,67.6,41.7,29.78,ENE,57,0.0,11.0,39,0.00,,,0.00,673.0,meteohub,2013-10-09 20:27:00,
2013-10-09 13:32:00,67.6,41.7,29.78,South,188,0.0,5.0,39,0.00,,,0.00,671.0,meteohub,2013-10-09 20:32:00,
2013-10-09 13:37:00,68.2,41.5,29.77,SW,228,0.0,5.0,38,0.00,,,0.00,671.0,meteohub,2013-10-09 20:37:00,
2013-10-09 13:42:00,69.1,42.4,29.78,SW,220,2.0,3.0,38,0.00,,,0.00,675.0,meteohub,2013-10-09 20:42:00,
2013-10-09 13:47:00,69.6,41.5,29.77,SW,233,5.0,9.0,36,0.00,,,0.00,673.0,meteohub,2013-10-09 20:47:00,
2013-10-09 13:52:00,69.4,41.4,29.77,ENE,74,1.0,9.0,36,0.00,,,0.00,127.0,meteohub,2013-10-09 20:52:00,
2013-10-09 13:57:00,69.1,41.0,29.77,SSW,207,1.0,9.0,36,0.00,,,0.00,446.0,meteohub,2013-10-09 20:57:00,
2013-10-09 14:02:00,69.4,46.0,29.78,West,265,4.0,7.0,43,0.00,,,0.00,680.0,meteohub,2013-10-09 21:02:00,
2013-10-09 14:07:00,69.6,46.2,29.78,WSW,250,2.0,8.0,43,0.00,,,0.00,626.0,meteohub,2013-10-09 21:07:00,
2013-10-09 14:12:00,69.6,46.8,29.77,West,275,4.0,8.0,44,0.00,,,0.00,127.0,meteohub,2013-10-09 21:12:00,
2013-10-09 14:17:00,69.6,46.2,29.77,SW,221,1.0,8.0,43,0.00,,,0.00,635.0,meteohub,2013-10-09 21:17:00,
2013-10-09 14:22:00,69.4,47.1,29.77,WSW,252,10.0,10.0,45,0.00,,,0.00,664.0,meteohub,2013-10-09 21:22:00,
2013-10-09 14:27:00,69.1,47.5,29.78,WSW,254,6.0,12.0,46,0.00,,,0.00,605.0,meteohub,2013-10-09 21:27:00,
2013-10-09 14:32:00,69.1,46.2,29.78,SW,224,6.0,12.0,44,0.00,,,0.00,615.0,meteohub,2013-10-09 21:32:00,
2013-10-09 14:37:00,68.9,46.0,29.78,SW,218,4.0,12.0,44,0.00,,,0.00,608.0,meteohub,2013-10-09 21:37:00,
2013-10-09 14:42:00,69.3,46.4,29.77,WSW,245,6.0,10.0,44,0.00,,,0.00,601.0,meteohub,2013-10-09 21:42:00,
2013-10-09 14:47:00,70.2,46.0,29.78,SW,236,1.0,9.0,42,0.00,,,0.00,596.0,meteohub,2013-10-09 21:47:00,
2013-10-09 14:52:00,70.5,46.9,29.78,SW,228,4.0,8.0,43,0.00,,,0.00,585.0,meteohub,2013-10-09 21:52:00,
2013-10-09 14:57:00,70.9,46.6,29.78,West,269,3.0,9.0,42,0.00,,,0.00,575.0,meteohub,2013-10-09 21:57:00,
2013-10-09 15:02:00,70.5,46.4,29.78,SSW,192,2.0,9.0,42,0.00,,,0.00,568.0,meteohub,2013-10-09 22:02:00,
2013-10-09 15:07:00,70.3,46.2,29.78,WSW,240,3.0,9.0,42,0.00,,,0.00,545.0,meteohub,2013-10-09 22:07:00,
2013-10-09 15:12:00,70.7,46.4,29.78,West,275,6.0,9.0,42,0.00,,,0.00,541.0,meteohub,2013-10-09 22:12:00,
2013-10-09 15:17:00,70.3,46.2,29.78,WNW,283,5.0,9.0,42,0.00,,,0.00,526.0,meteohub,2013-10-09 22:17:00,
2013-10-09 15:22:00,70.0,46.4,29.78,WSW,254,4.0,9.0,43,0.00,,,0.00,529.0,meteohub,2013-10-09 22:22:00,
2013-10-09 15:27:00,70.2,46.0,29.78,West,273,4.0,9.0,42,0.00,,,0.00,520.0,meteohub,2013-10-09 22:27:00,
2013-10-09 15:32:00,70.3,45.5,29.78,WNW,294,4.0,9.0,41,0.00,,,0.00,510.0,meteohub,2013-10-09 22:32:00,
2013-10-09 15:37:00,70.5,46.4,29.78,WSW,252,5.0,8.0,42,0.00,,,0.00,499.0,meteohub,2013-10-09 22:37:00,
2013-10-09 15:42:00,70.5,45.7,29.78,WSW,255,5.0,7.0,41,0.00,,,0.00,487.0,meteohub,2013-10-09 22:42:00,
2013-10-09 15:47:00,70.0,45.9,29.78,WNW,298,4.0,12.0,42,0.00,,,0.00,473.0,meteohub,2013-10-09 22:47:00,
2013-10-09 15:52:00,69.6,45.0,29.78,WSW,241,6.0,12.0,41,0.00,,,0.00,466.0,meteohub,2013-10-09 22:52:00,
2013-10-09 15:57:00,69.4,46.0,29.79,WSW,257,3.0,12.0,43,0.00,,,0.00,448.0,meteohub,2013-10-09 22:57:00,
2013-10-09 16:02:00,69.3,45.1,29.79,SW,225,6.0,12.0,42,0.00,,,0.00,431.0,meteohub,2013-10-09 23:02:00,
2013-10-09 16:07:00,69.3,45.1,29.79,WSW,242,5.0,12.0,42,0.00,,,0.00,422.0,meteohub,2013-10-09 23:07:00,
2013-10-09 16:12:00,69.4,45.3,29.79,SW,233,7.0,10.0,42,0.00,,,0.00,410.0,meteohub,2013-10-09 23:12:00,
2013-10-09 16:17:00,69.1,44.4,29.79,West,269,3.0,11.0,41,0.00,,,0.00,401.0,meteohub,2013-10-09 23:17:00,
2013-10-09 16:22:00,69.3,43.9,29.79,WSW,248,5.0,11.0,40,0.00,,,0.00,387.0,meteohub,2013-10-09 23:22:00,
2013-10-09 16:27:00,69.1,43.7,29.79,SW,221,8.0,11.0,40,0.00,,,0.00,373.0,meteohub,2013-10-09 23:27:00,
2013-10-09 16:32:00,69.1,43.2,29.79,SW,236,6.0,11.0,39,0.00,,,0.00,359.0,meteohub,2013-10-09 23:32:00,
2013-10-09 16:37:00,68.7,42.1,29.79,WSW,254,7.0,11.0,38,0.00,,,0.00,343.0,meteohub,2013-10-09 23:37:00,
2013-10-09 16:43:00,68.5,42.6,29.79,WSW,242,8.0,11.0,39,0.00,,,0.00,329.0,meteohub,2013-10-09 23:43:00,
2013-10-09 16:48:00,68.4,43.2,29.80,West,259,6.0,11.0,40,0.00,,,0.00,315.0,meteohub,2013-10-09 23:48:00,
2013-10-09 16:53:00,68.2,42.3,29.80,WNW,283,5.0,11.0,39,0.00,,,0.00,299.0,meteohub,2013-10-09 23:53:00,
2013-10-09 16:58:00,67.8,42.6,29.80,West,272,2.0,10.0,40,0.00,,,0.00,285.0,meteohub,2013-10-09 23:58:00,
2013-10-09 17:03:00,67.8,42.6,29.80,WSW,240,4.0,9.0,40,0.00,,,0.00,269.0,meteohub,2013-10-10 00:03:00,
2013-10-09 17:08:00,67.8,42.6,29.80,WSW,252,3.0,9.0,40,0.00,,,0.00,255.0,meteohub,2013-10-10 00:08:00,
2013-10-09 17:13:00,67.8,42.6,29.80,WSW,242,6.0,9.0,40,0.00,,,0.00,239.0,meteohub,2013-10-10 00:13:00,
2013-10-09 17:18:00,67.6,42.4,29.80,WSW,257,3.0,9.0,40,0.00,,,0.00,221.0,meteohub,2013-10-10 00:18:00,
2013-10-09 17:23:00,67.6,42.4,29.81,West,262,7.0,9.0,40,0.00,,,0.00,204.0,meteohub,2013-10-10 00:23:00,
2013-10-09 17:28:00,67.5,43.0,29.81,SW,234,6.0,9.0,41,0.00,,,0.00,186.0,meteohub,2013-10-10 00:28:00,
2013-10-09 17:33:00,66.9,42.4,29.81,West,266,3.0,8.0,41,0.00,,,0.00,169.0,meteohub,2013-10-10 00:33:00,
2013-10-09 17:38:00,66.9,42.4,29.81,WSW,244,4.0,8.0,41,0.00,,,0.00,149.0,meteohub,2013-10-10 00:38:00,
2013-10-09 17:43:00,66.7,42.3,29.81,West,260,3.0,7.0,41,0.00,,,0.00,132.0,meteohub,2013-10-10 00:43:00,
2013-10-09 17:48:00,66.4,42.6,29.81,WSW,252,2.0,6.0,42,0.00,,,0.00,113.0,meteohub,2013-10-10 00:48:00,
2013-10-09 17:53:00,66.0,42.3,29.81,WSW,245,6.0,7.0,42,0.00,,,0.00,97.0,meteohub,2013-10-10 00:53:00,
2013-10-09 17:58:00,65.8,42.1,29.81,SW,229,4.0,7.0,42,0.00,,,0.00,81.0,meteohub,2013-10-10 00:58:00,
2013-10-09 18:03:00,65.5,41.7,29.81,WSW,252,2.0,7.0,42,0.00,,,0.00,69.0,meteohub,2013-10-10 01:03:00,
2013-10-09 18:08:00,64.9,41.9,29.81,WSW,248,4.0,7.0,43,0.00,,,0.00,33.0,meteohub,2013-10-10 01:08:00,
2013-10-09 18:13:00,64.4,41.4,29.81,West,265,6.0,8.0,43,0.00,,,0.00,28.0,meteohub,2013-10-10 01:13:00,
2013-10-09 18:18:00,64.0,41.2,29.81,WSW,251,2.0,8.0,43,0.00,,,0.00,21.0,meteohub,2013-10-10 01:18:00,
2013-10-09 18:23:00,63.5,41.2,29.81,SW,225,2.0,7.0,44,0.00,,,0.00,16.0,meteohub,2013-10-10 01:23:00,
2013-10-09 18:29:00,63.1,41.5,29.82,WSW,248,5.0,7.0,45,0.00,,,0.00,9.0,meteohub,2013-10-10 01:29:00,
2013-10-09 18:34:00,62.8,41.2,29.82,WSW,238,2.0,9.0,45,0.00,,,0.00,5.0,meteohub,2013-10-10 01:34:00,
2013-10-09 18:39:00,62.4,41.4,29.82,West,277,2.0,9.0,46,0.00,,,0.00,0.0,meteohub,2013-10-10 01:39:00,
2013-10-09 18:44:00,62.1,41.0,29.83,WSW,245,2.0,6.0,46,0.00,,,0.00,0.0,meteohub,2013-10-10 01:44:00,
2013-10-09 18:49:00,61.7,41.2,29.83,WSW,238,2.0,6.0,47,0.00,,,0.00,0.0,meteohub,2013-10-10 01:49:00,
2013-10-09 18:54:00,61.5,41.2,29.83,WSW,244,2.0,6.0,47,0.00,,,0.00,0.0,meteohub,2013-10-10 01:54:00,
2013-10-09 18:59:00,61.2,41.4,29.83,SW,226,0.0,6.0,48,0.00,,,0.00,0.0,meteohub,2013-10-10 01:59:00,
2013-10-09 19:04:00,61.0,41.2,29.83,WSW,240,1.0,6.0,48,0.00,,,0.00,0.0,meteohub,2013-10-10 02:04:00,
2013-10-09 19:09:00,60.8,41.0,29.83,WSW,248,0.0,6.0,48,0.00,,,0.00,0.0,meteohub,2013-10-10 02:09:00,
2013-10-09 19:14:00,60.6,41.4,29.83,WSW,252,2.0,3.0,49,0.00,,,0.00,0.0,meteohub,2013-10-10 02:14:00,
2013-10-09 19:19:00,60.4,41.2,29.83,WSW,242,0.0,5.0,49,0.00,,,0.00,0.0,meteohub,2013-10-10 02:19:00,
2013-10-09 19:24:00,60.3,41.0,29.83,SW,236,0.0,5.0,49,0.00,,,0.00,0.0,meteohub,2013-10-10 02:24:00,
2013-10-09 19:29:00,60.3,41.0,29.83,SW,236,0.0,4.0,49,0.00,,,0.00,0.0,meteohub,2013-10-10 02:29:00,
2013-10-09 19:34:00,60.1,40.8,29.83,SSW,212,0.0,4.0,49,0.00,,,0.00,0.0,meteohub,2013-10-10 02:34:00,
2013-10-09 19:39:00,60.1,40.8,29.84,SSW,202,2.0,2.0,49,0.00,,,0.00,0.0,meteohub,2013-10-10 02:39:00,
2013-10-09 19:44:00,59.9,41.2,29.84,SW,215,0.0,3.0,50,0.00,,,0.00,0.0,meteohub,2013-10-10 02:44:00,
2013-10-09 19:49:00,59.7,41.0,29.84,SW,215,0.0,3.0,50,0.00,,,0.00,0.0,meteohub,2013-10-10 02:49:00,
2013-10-09 19:55:00,59.7,41.0,29.84,SW,215,0.0,3.0,50,0.00,,,0.00,0.0,meteohub,2013-10-10 02:55:00,
2013-10-09 20:00:00,59.5,40.8,29.84,SW,215,0.0,1.0,50,0.00,,,0.00,0.0,meteohub,2013-10-10 03:00:00,
2013-10-09 20:05:00,59.4,41.2,29.84,SW,215,0.0,1.0,51,0.00,,,0.00,0.0,meteohub,2013-10-10 03:05:00,
2013-10-09 20:10:00,59.2,41.0,29.84,SW,215,0.0,1.0,51,0.00,,,0.00,0.0,meteohub,2013-10-10 03:10:00,
2013-10-09 20:15:00,58.8,40.8,29.85,SW,215,0.0,1.0,51,0.00,,,0.00,0.0,meteohub,2013-10-10 03:15:00,
2013-10-09 20:20:00,58.6,40.6,29.85,SW,215,0.0,1.0,51,0.00,,,0.00,0.0,meteohub,2013-10-10 03:20:00,
2013-10-09 20:25:00,58.6,41.0,29.85,SW,215,0.0,1.0,52,0.00,,,0.00,0.0,meteohub,2013-10-10 03:25:00,
2013-10-09 20:30:00,58.5,40.8,29.85,SW,215,0.0,0.0,52,0.00,,,0.00,0.0,meteohub,2013-10-10 03:30:00,
2013-10-09 20:35:00,58.5,40.8,29.85,SW,215,0.0,1.0,52,0.00,,,0.00,0.0,meteohub,2013-10-10 03:35:00,
2013-10-09 20:40:00,58.3,41.2,29.86,SW,215,0.0,1.0,53,0.00,,,0.00,0.0,meteohub,2013-10-10 03:40:00,
2013-10-09 20:45:00,57.9,40.8,29.86,SW,215,0.0,0.0,53,0.00,,,0.00,0.0,meteohub,2013-10-10 03:45:00,
2013-10-09 20:50:00,57.6,40.6,29.86,SW,215,0.0,0.0,53,0.00,,,0.00,0.0,meteohub,2013-10-10 03:50:00,
2013-10-09 20:55:00,57.4,40.8,29.86,SW,215,0.0,0.0,54,0.00,,,0.00,0.0,meteohub,2013-10-10 03:55:00,
2013-10-09 21:01:00,57.0,41.0,29.86,SW,215,0.0,0.0,55,0.00,,,0.00,0.0,meteohub,2013-10-10 04:01:00,
2013-10-09 21:02:00,56.8,40.8,29.86,SW,215,0.0,0.0,55,0.00,,,0.00,0.0,meteohub,2013-10-10 04:02:00,
2013-10-09 21:04:00,56.8,40.8,29.86,SW,215,0.0,0.0,55,0.00,,,0.00,0.0,meteohub,2013-10-10 04:04:00,
2013-10-09 21:06:00,56.7,40.6,29.86,SW,215,0.0,0.0,55,0.00,,,0.00,0.0,meteohub,2013-10-10 04:06:00,
2013-10-09 21:07:00,56.7,40.6,29.86,SW,215,0.0,0.0,55,0.00,,,0.00,0.0,meteohub,2013-10-10 04:07:00,
2013-10-09 21:12:00,56.1,40.6,29.86,SW,215,0.0,0.0,56,0.00,,,0.00,0.0,meteohub,2013-10-10 04:12:00,
2013-10-09 21:17:00,55.8,40.8,29.86,SW,215,0.0,0.0,57,0.00,,,0.00,0.0,meteohub,2013-10-10 04:17:00,
2013-10-09 21:22:00,55.6,40.6,29.86,SW,215,0.0,0.0,57,0.00,,,0.00,0.0,meteohub,2013-10-10 04:22:00,
2013-10-09 21:27:00,55.2,40.6,29.86,SW,215,0.0,0.0,58,0.00,,,0.00,0.0,meteohub,2013-10-10 04:27:00,
2013-10-09 21:32:00,55.2,40.6,29.86,SW,215,0.0,0.0,58,0.00,,,0.00,0.0,meteohub,2013-10-10 04:32:00,
2013-10-09 21:37:00,55.0,40.5,29.86,SW,215,0.0,0.0,58,0.00,,,0.00,0.0,meteohub,2013-10-10 04:37:00,
2013-10-09 21:42:00,55.0,40.5,29.87,SW,215,0.0,0.0,58,0.00,,,0.00,0.0,meteohub,2013-10-10 04:42:00,
2013-10-09 21:47:00,55.0,40.5,29.87,SW,215,0.0,0.0,58,0.00,,,0.00,0.0,meteohub,2013-10-10 04:47:00,
2013-10-09 21:52:00,54.9,40.3,29.87,SW,215,0.0,0.0,58,0.00,,,0.00,0.0,meteohub,2013-10-10 04:52:00,
2013-10-09 21:57:00,55.0,40.5,29.87,SW,215,0.0,0.0,58,0.00,,,0.00,0.0,meteohub,2013-10-10 04:57:00,
2013-10-09 22:02:00,55.0,40.1,29.87,SW,215,0.0,0.0,57,0.00,,,0.00,0.0,meteohub,2013-10-10 05:02:00,
2013-10-09 22:07:00,55.2,40.3,29.88,SW,215,0.0,0.0,57,0.00,,,0.00,0.0,meteohub,2013-10-10 05:07:00,
2013-10-09 22:12:00,55.2,40.3,29.88,SW,215,0.0,0.0,57,0.00,,,0.00,0.0,meteohub,2013-10-10 05:12:00,
2013-10-09 22:17:00,55.2,40.3,29.88,SW,215,0.0,0.0,57,0.00,,,0.00,0.0,meteohub,2013-10-10 05:17:00,
2013-10-09 22:22:00,55.4,40.5,29.88,SW,215,0.0,0.0,57,0.00,,,0.00,0.0,meteohub,2013-10-10 05:22:00,
2013-10-09 22:27:00,55.6,40.6,29.88,SW,215,0.0,0.0,57,0.00,,,0.00,0.0,meteohub,2013-10-10 05:27:00,
2013-10-09 22:32:00,55.6,40.6,29.88,SW,215,0.0,0.0,57,0.00,,,0.00,0.0,meteohub,2013-10-10 05:32:00,
2013-10-09 22:37:00,55.9,40.5,29.88,SW,215,0.0,0.0,56,0.00,,,0.00,0.0,meteohub,2013-10-10 05:37:00,
2013-10-09 22:42:00,55.9,40.5,29.88,SW,215,0.0,0.0,56,0.00,,,0.00,0.0,meteohub,2013-10-10 05:42:00,
2013-10-09 22:47:00,55.9,40.5,29.88,SW,215,0.0,1.0,56,0.00,,,0.00,0.0,meteohub,2013-10-10 05:47:00,
2013-10-09 22:52:00,55.9,40.5,29.88,SW,215,0.0,1.0,56,0.00,,,0.00,0.0,meteohub,2013-10-10 05:52:00,
2013-10-09 22:57:00,55.9,40.5,29.88,SW,215,0.0,1.0,56,0.00,,,0.00,0.0,meteohub,2013-10-10 05:57:00,
2013-10-09 23:02:00,55.8,40.3,29.88,SW,215,0.0,0.0,56,0.00,,,0.00,0.0,meteohub,2013-10-10 06:02:00,
2013-10-09 23:07:00,55.8,40.3,29.88,SW,215,0.0,1.0,56,0.00,,,0.00,0.0,meteohub,2013-10-10 06:07:00,
2013-10-09 23:12:00,55.9,40.5,29.89,SW,215,0.0,1.0,56,0.00,,,0.00,0.0,meteohub,2013-10-10 06:12:00,
2013-10-09 23:17:00,55.8,40.3,29.89,SW,215,0.0,1.0,56,0.00,,,0.00,0.0,meteohub,2013-10-10 06:17:00,
2013-10-09 23:22:00,55.8,40.3,29.89,SW,215,0.0,1.0,56,0.00,,,0.00,0.0,meteohub,2013-10-10 06:22:00,
2013-10-09 23:27:00,55.4,39.9,29.89,SW,215,0.0,0.0,56,0.00,,,0.00,0.0,meteohub,2013-10-10 06:27:00,
2013-10-09 23:32:00,55.2,39.7,29.89,SW,215,0.0,0.0,56,0.00,,,0.00,0.0,meteohub,2013-10-10 06:32:00,
2013-10-09 23:37:00,55.0,39.2,29.89,SW,215,0.0,0.0,55,0.00,,,0.00,0.0,meteohub,2013-10-10 06:37:00,
2013-10-09 23:42:00,55.0,39.2,29.89,SW,215,0.0,1.0,55,0.00,,,0.00,0.0,meteohub,2013-10-10 06:42:00,
2013-10-09 23:47:00,55.0,39.2,29.89,SW,215,0.0,1.0,55,0.00,,,0.00,0.0,meteohub,2013-10-10 06:47:00,
2013-10-09 23:52:00,55.2,38.8,29.90,SW,215,0.0,1.0,54,0.00,,,0.00,0.0,meteohub,2013-10-10 06:52:00,
2013-10-09 23:57:00,55.2,38.8,29.89,SW,215,0.0,0.0,54,0.00,,,0.00,0.0,meteohub,2013-10-10 06:57:00,